Time,TemperatureF,DewpointF,PressureIn,WindDirection,WindDirectionDegrees,WindSpeedMPH,WindSpeedGustMPH,Humidity,HourlyPrecipIn,Conditions,Clouds,dailyrainin,SolarRadiationWatts/m^2,SoftwareType,DateUTC
2013-03-21 00:04:00,53.5,52.1,30.16,West,267,4.0,5.0,95,0.00,,,0.00,0.00,VWS V14.01,2013-03-21 07:04:00,
2013-03-21 00:09:00,53.5,52.1,30.16,West,270,3.0,6.0,95,0.00,,,0.00,0.00,VWS V14.01,2013-03-21 07:09:00,
2013-03-21 00:14:00,53.5,52.1,30.16,West,277,5.0,5.0,95,0.00,,,0.00,0.00,VWS V14.01,2013-03-21 07:14:00,
2013-03-21 00:20:00,53.4,52.0,30.16,West,277,4.0,6.0,95,0.00,,,0.00,0.00,VWS V14.01,2013-03-21 07:20:00,
2013-03-21 00:25:00,53.3,51.9,30.16,SW,236,3.0,4.0,95,0.00,,,0.00,0.00,VWS V14.01,2013-03-21 07:25:00,
2013-03-21 00:30:00,53.2,51.8,30.16,WNW,288,2.0,3.0,95,0.00,,,0.00,0.00,VWS V14.01,2013-03-21 07:30:00,
2013-03-21 00:35:00,53.0,51.6,30.16,SW,229,3.0,5.0,95,0.00,,,0.00,0.00,VWS V14.01,2013-03-21 07:35:00,
2013-03-21 00:40:00,53.0,51.3,30.16,WNW,289,2.0,4.0,94,0.00,,,0.00,0.00,VWS V14.01,2013-03-21 07:40:00,
2013-03-21 00:45:00,52.9,51.5,30.16,West,262,1.0,4.0,95,0.00,,,0.00,0.00,VWS V14.01,2013-03-21 07:45:00,
2013-03-21 00:50:00,52.8,51.4,30.16,West,262,1.0,4.0,95,0.00,,,0.00,0.00,VWS V14.01,2013-03-21 07:50:00,
2013-03-21 00:55:00,52.8,51.4,30.16,West,281,2.0,4.0,95,0.00,,,0.00,0.00,VWS V14.01,2013-03-21 07:55:00,
2013-03-21 01:00:00,52.8,51.4,30.16,West,277,4.0,5.0,95,0.00,,,0.00,0.00,VWS V14.01,2013-03-21 08:00:00,
2013-03-21 01:07:00,52.9,51.5,30.16,WNW,293,4.0,7.0,95,0.00,,,0.00,0.00,VWS V14.01,2013-03-21 08:07:00,
2013-03-21 01:12:00,53.0,51.6,30.16,West,279,1.0,4.0,95,0.00,,,0.00,0.00,VWS V14.01,2013-03-21 08:12:00,
2013-03-21 01:17:00,53.0,51.3,30.16,NW,308,4.0,8.0,94,0.00,,,0.00,0.00,VWS V14.01,2013-03-21 08:17:00,
2013-03-21 01:22:00,53.0,51.3,30.16,West,279,3.0,6.0,94,0.00,,,0.00,0.00,VWS V14.01,2013-03-21 08:22:00,
2013-03-21 01:27:00,52.9,51.2,30.16,West,270,2.0,8.0,94,0.00,,,0.00,0.00,VWS V14.01,2013-03-21 08:27:00,
2013-03-21 01:33:00,52.7,51.0,30.16,West,267,4.0,7.0,94,0.00,,,0.00,0.00,VWS V14.01,2013-03-21 08:33:00,
2013-03-21 01:38:00,52.4,51.0,30.16,West,267,3.0,7.0,95,0.00,,,0.00,0.00,VWS V14.01,2013-03-21 08:38:00,
2013-03-21 01:43:00,52.2,50.5,30.16,WNW,287,6.0,9.0,94,0.00,,,0.00,0.00,VWS V14.01,2013-03-21 08:43:00,
2013-03-21 01:48:00,52.1,50.7,30.15,WSW,257,3.0,9.0,95,0.00,,,0.00,0.00,VWS V14.01,2013-03-21 08:48:00,
2013-03-21 01:53:00,52.0,50.6,30.15,WSW,256,5.0,6.0,95,0.00,,,0.00,0.00,VWS V14.01,2013-03-21 08:53:00,
2013-03-21 01:58:00,51.9,50.5,30.16,West,271,7.0,8.0,95,0.00,,,0.00,0.00,VWS V14.01,2013-03-21 08:58:00,
2013-03-21 02:03:00,51.9,50.5,30.16,NW,319,4.0,5.0,95,0.00,,,0.00,0.00,VWS V14.01,2013-03-21 09:03:00,
2013-03-21 02:08:00,51.7,50.3,30.15,WNW,298,2.0,8.0,95,0.00,,,0.00,0.00,VWS V14.01,2013-03-21 09:08:00,
2013-03-21 02:13:00,51.6,50.2,30.15,North,6,2.0,7.0,95,0.00,,,0.00,0.00,VWS V14.01,2013-03-21 09:13:00,
2013-03-21 02:18:00,51.5,50.1,30.15,WSW,243,2.0,7.0,95,0.00,,,0.00,0.00,VWS V14.01,2013-03-21 09:18:00,
2013-03-21 02:23:00,51.4,50.0,30.15,WSW,247,8.0,8.0,95,0.00,,,0.00,0.00,VWS V14.01,2013-03-21 09:23:00,
2013-03-21 02:28:00,51.4,50.0,30.15,WSW,252,1.0,8.0,95,0.00,,,0.00,0.00,VWS V14.01,2013-03-21 09:28:00,
2013-03-21 02:33:00,51.4,49.7,30.15,West,272,3.0,9.0,94,0.00,,,0.00,0.00,VWS V14.01,2013-03-21 09:33:00,
2013-03-21 02:38:00,51.4,49.7,30.15,NW,310,2.0,9.0,94,0.00,,,0.00,0.00,VWS V14.01,2013-03-21 09:38:00,
2013-03-21 02:43:00,51.4,49.5,30.15,WNW,303,4.0,9.0,93,0.00,,,0.00,0.00,VWS V14.01,2013-03-21 09:43:00,
2013-03-21 02:48:00,51.5,49.5,30.15,WNW,303,4.0,10.0,93,0.00,,,0.00,0.00,VWS V14.01,2013-03-21 09:48:00,
2013-03-21 02:53:00,51.6,49.4,30.15,WNW,291,3.0,9.0,92,0.00,,,0.00,0.00,VWS V14.01,2013-03-21 09:53:00,
2013-03-21 02:58:00,51.7,49.5,30.15,NW,306,7.0,9.0,92,0.00,,,0.00,0.00,VWS V14.01,2013-03-21 09:58:00,
2013-03-21 03:03:00,51.7,49.5,30.15,West,264,4.0,7.0,92,0.00,,,0.00,0.00,VWS V14.01,2013-03-21 10:03:00,
2013-03-21 03:08:00,51.8,49.3,30.15,West,260,2.0,11.0,91,0.00,,,0.00,0.00,VWS V14.01,2013-03-21 10:08:00,
2013-03-21 03:13:00,51.7,49.2,30.14,WNW,288,4.0,10.0,91,0.00,,,0.00,0.00,VWS V14.01,2013-03-21 10:13:00,
2013-03-21 03:18:00,51.6,49.1,30.14,NW,318,4.0,11.0,91,0.00,,,0.00,0.00,VWS V14.01,2013-03-21 10:18:00,
2013-03-21 03:23:00,51.5,48.7,30.14,SW,234,1.0,9.0,90,0.00,,,0.00,0.00,VWS V14.01,2013-03-21 10:23:00,
2013-03-21 03:28:00,51.5,48.7,30.14,North,349,5.0,10.0,90,0.00,,,0.00,0.00,VWS V14.01,2013-03-21 10:28:00,
2013-03-21 03:34:00,51.4,48.6,30.14,West,281,10.0,10.0,90,0.00,,,0.00,0.00,VWS V14.01,2013-03-21 10:34:00,
2013-03-21 03:39:00,51.4,48.3,30.14,West,275,5.0,10.0,89,0.00,,,0.00,0.00,VWS V14.01,2013-03-21 10:39:00,
2013-03-21 03:45:00,51.4,48.3,30.14,WNW,303,4.0,12.0,89,0.00,,,0.00,0.00,VWS V14.01,2013-03-21 10:45:00,
2013-03-21 03:50:00,51.3,47.9,30.14,North,6,6.0,6.0,88,0.00,,,0.00,0.00,VWS V14.01,2013-03-21 10:50:00,
2013-03-21 03:55:00,51.3,47.9,30.14,West,268,5.0,10.0,88,0.00,,,0.00,0.00,VWS V14.01,2013-03-21 10:55:00,
2013-03-21 04:00:00,51.2,47.8,30.14,NW,323,3.0,7.0,88,0.00,,,0.00,0.00,VWS V14.01,2013-03-21 11:00:00,
2013-03-21 04:05:00,51.1,47.7,30.14,West,263,0.0,13.0,88,0.00,,,0.00,0.00,VWS V14.01,2013-03-21 11:05:00,
2013-03-21 04:10:00,50.9,47.2,30.13,West,277,8.0,9.0,87,0.00,,,0.00,0.00,VWS V14.01,2013-03-21 11:10:00,
2013-03-21 04:15:00,50.8,46.8,30.14,West,279,6.0,15.0,86,0.00,,,0.00,0.00,VWS V14.01,2013-03-21 11:15:00,
2013-03-21 04:20:00,50.7,46.7,30.13,WNW,289,5.0,5.0,86,0.00,,,0.00,0.00,VWS V14.01,2013-03-21 11:20:00,
2013-03-21 04:25:00,50.6,46.3,30.13,NW,308,4.0,14.0,85,0.00,,,0.00,0.00,VWS V14.01,2013-03-21 11:25:00,
2013-03-21 04:30:00,50.5,46.2,30.13,WSW,243,2.0,4.0,85,0.00,,,0.00,0.00,VWS V14.01,2013-03-21 11:30:00,
2013-03-21 04:36:00,50.4,45.8,30.13,WNW,296,11.0,11.0,84,0.00,,,0.00,0.00,VWS V14.01,2013-03-21 11:36:00,
2013-03-21 04:41:00,50.3,45.7,30.13,West,272,6.0,6.0,84,0.00,,,0.00,0.00,VWS V14.01,2013-03-21 11:41:00,
2013-03-21 04:47:00,50.1,44.8,30.13,NNW,339,5.0,16.0,82,0.00,,,0.00,0.00,VWS V14.01,2013-03-21 11:47:00,
2013-03-21 04:52:00,50.2,44.9,30.13,NNW,333,11.0,12.0,82,0.00,,,0.00,0.00,VWS V14.01,2013-03-21 11:52:00,
2013-03-21 04:57:00,50.2,44.9,30.13,NNW,327,6.0,12.0,82,0.00,,,0.00,0.00,VWS V14.01,2013-03-21 11:57:00,
2013-03-21 05:02:00,50.2,44.9,30.13,NW,304,6.0,11.0,82,0.00,,,0.00,0.00,VWS V14.01,2013-03-21 12:02:00,
2013-03-21 05:08:00,50.1,44.8,30.13,NW,306,9.0,16.0,82,0.00,,,0.00,0.00,VWS V14.01,2013-03-21 12:08:00,
2013-03-21 05:13:00,50.0,44.7,30.13,NW,304,6.0,12.0,82,0.00,,,0.00,0.00,VWS V14.01,2013-03-21 12:13:00,
2013-03-21 05:18:00,49.8,44.2,30.13,NNE,20,5.0,13.0,81,0.00,,,0.00,0.00,VWS V14.01,2013-03-21 12:18:00,
2013-03-21 05:23:00,49.7,43.8,30.13,WNW,302,6.0,17.0,80,0.00,,,0.00,0.00,VWS V14.01,2013-03-21 12:23:00,
2013-03-21 05:28:00,49.6,44.0,30.13,NW,310,4.0,17.0,81,0.00,,,0.00,0.00,VWS V14.01,2013-03-21 12:28:00,
2013-03-21 05:33:00,49.6,44.3,30.13,WNW,287,12.0,12.0,82,0.00,,,0.00,0.00,VWS V14.01,2013-03-21 12:33:00,
2013-03-21 05:38:00,49.5,44.2,30.13,NW,318,3.0,16.0,82,0.00,,,0.00,0.00,VWS V14.01,2013-03-21 12:38:00,
2013-03-21 05:44:00,49.4,44.1,30.13,WNW,287,6.0,11.0,82,0.00,,,0.00,0.00,VWS V14.01,2013-03-21 12:44:00,
2013-03-21 05:49:00,49.5,44.2,30.13,WNW,291,6.0,13.0,82,0.00,,,0.00,0.00,VWS V14.01,2013-03-21 12:49:00,
2013-03-21 05:54:00,49.5,44.2,30.13,NW,315,4.0,14.0,82,0.00,,,0.00,0.00,VWS V14.01,2013-03-21 12:54:00,
2013-03-21 05:59:00,49.4,44.1,30.13,West,270,8.0,14.0,82,0.00,,,0.00,0.00,VWS V14.01,2013-03-21 12:59:00,
2013-03-21 06:04:00,49.4,44.1,30.12,WNW,299,6.0,14.0,82,0.00,,,0.00,0.00,VWS V14.01,2013-03-21 13:04:00,
2013-03-21 06:09:00,49.3,43.7,30.12,NW,308,4.0,14.0,81,0.00,,,0.00,0.00,VWS V14.01,2013-03-21 13:09:00,
2013-03-21 06:14:00,49.2,43.6,30.12,WNW,299,5.0,11.0,81,0.00,,,0.00,0.00,VWS V14.01,2013-03-21 13:14:00,
2013-03-21 06:19:00,49.2,43.6,30.12,NNE,20,5.0,11.0,81,0.00,,,0.00,0.00,VWS V14.01,2013-03-21 13:19:00,
2013-03-21 06:24:00,49.1,43.2,30.12,North,349,3.0,11.0,80,0.00,,,0.00,0.00,VWS V14.01,2013-03-21 13:24:00,
2013-03-21 06:29:00,49.0,43.4,30.12,NW,306,4.0,11.0,81,0.00,,,0.00,0.00,VWS V14.01,2013-03-21 13:29:00,
2013-03-21 06:34:00,49.0,43.4,30.12,WNW,302,5.0,10.0,81,0.00,,,0.00,0.00,VWS V14.01,2013-03-21 13:34:00,
2013-03-21 06:39:00,49.0,43.4,30.12,WSW,250,3.0,10.0,81,0.00,,,0.00,0.00,VWS V14.01,2013-03-21 13:39:00,
2013-03-21 06:44:00,49.0,43.4,30.12,West,277,2.0,4.0,81,0.00,,,0.00,0.00,VWS V14.01,2013-03-21 13:44:00,
2013-03-21 06:49:00,49.0,43.8,30.12,WSW,237,1.0,6.0,82,0.00,,,0.00,0.00,VWS V14.01,2013-03-21 13:49:00,
2013-03-21 06:54:00,49.1,43.8,30.12,WNW,297,1.0,5.0,82,0.00,,,0.00,0.00,VWS V14.01,2013-03-21 13:54:00,
2013-03-21 07:00:00,49.1,43.8,30.12,NW,320,2.0,6.0,82,0.00,,,0.00,0.00,VWS V14.01,2013-03-21 14:00:00,
2013-03-21 07:05:00,49.1,43.8,30.12,East,89,0.0,7.0,82,0.00,,,0.00,0.00,VWS V14.01,2013-03-21 14:05:00,
2013-03-21 07:10:00,49.1,43.8,30.12,NNW,328,1.0,7.0,82,0.00,,,0.00,0.00,VWS V14.01,2013-03-21 14:10:00,
2013-03-21 07:15:00,49.1,43.8,30.12,NNW,336,4.0,5.0,82,0.00,,,0.00,7.00,VWS V14.01,2013-03-21 14:15:00,
2013-03-21 07:20:00,49.1,43.8,30.12,West,269,3.0,3.0,82,0.00,,,0.00,9.00,VWS V14.01,2013-03-21 14:20:00,
2013-03-21 07:25:00,49.1,44.2,30.12,NW,315,2.0,7.0,83,0.00,,,0.00,19.00,VWS V14.01,2013-03-21 14:25:00,
2013-03-21 07:30:00,49.1,44.2,30.12,West,273,2.0,6.0,83,0.00,,,0.00,21.00,VWS V14.01,2013-03-21 14:30:00,
2013-03-21 07:35:00,49.2,44.3,30.12,NW,313,6.0,6.0,83,0.00,,,0.00,26.00,VWS V14.01,2013-03-21 14:35:00,
2013-03-21 07:40:00,49.3,44.4,30.13,WNW,295,10.0,10.0,83,0.00,,,0.00,30.00,VWS V14.01,2013-03-21 14:40:00,
2013-03-21 07:45:00,49.3,44.4,30.13,West,275,2.0,10.0,83,0.00,,,0.00,32.00,VWS V14.01,2013-03-21 14:45:00,
2013-03-21 07:50:00,49.4,44.8,30.13,NNE,15,2.0,6.0,84,0.00,,,0.00,44.00,VWS V14.01,2013-03-21 14:50:00,
2013-03-21 07:55:00,49.5,44.6,30.13,North,360,1.0,10.0,83,0.00,,,0.00,58.00,VWS V14.01,2013-03-21 14:55:00,
2013-03-21 08:00:00,49.5,44.6,30.13,North,360,2.0,3.0,83,0.00,,,0.00,70.00,VWS V14.01,2013-03-21 15:00:00,
2013-03-21 08:05:00,49.6,44.7,30.13,WSW,249,6.0,11.0,83,0.00,,,0.00,79.00,VWS V14.01,2013-03-21 15:05:00,
2013-03-21 08:11:00,49.6,44.7,30.13,WNW,289,4.0,4.0,83,0.00,,,0.00,74.00,VWS V14.01,2013-03-21 15:11:00,
2013-03-21 08:16:00,49.6,44.7,30.13,WNW,300,2.0,6.0,83,0.00,,,0.00,100.00,VWS V14.01,2013-03-21 15:16:00,
2013-03-21 08:21:00,49.7,44.8,30.13,WNW,295,6.0,6.0,83,0.00,,,0.00,105.00,VWS V14.01,2013-03-21 15:21:00,
2013-03-21 08:26:00,49.7,44.8,30.14,North,10,3.0,7.0,83,0.00,,,0.00,125.00,VWS V14.01,2013-03-21 15:26:00,
2013-03-21 08:32:00,49.8,44.5,30.14,NNW,331,2.0,8.0,82,0.00,,,0.00,139.00,VWS V14.01,2013-03-21 15:32:00,
2013-03-21 08:37:00,50.1,44.8,30.14,North,351,0.0,8.0,82,0.00,,,0.00,139.00,VWS V14.01,2013-03-21 15:37:00,
2013-03-21 08:42:00,50.5,45.2,30.14,WNW,292,3.0,7.0,82,0.00,,,0.00,90.00,VWS V14.01,2013-03-21 15:42:00,
2013-03-21 08:47:00,50.5,44.6,30.13,WNW,288,3.0,8.0,80,0.00,,,0.00,91.00,VWS V14.01,2013-03-21 15:47:00,
2013-03-21 08:52:00,50.5,44.9,30.13,WNW,283,6.0,7.0,81,0.00,,,0.00,220.00,VWS V14.01,2013-03-21 15:52:00,
2013-03-21 08:57:00,50.8,44.9,30.13,NNE,20,3.0,7.0,80,0.00,,,0.00,301.00,VWS V14.01,2013-03-21 15:57:00,
2013-03-21 09:02:00,51.0,45.1,30.13,NNW,342,0.0,6.0,80,0.00,,,0.00,346.00,VWS V14.01,2013-03-21 16:02:00,
2013-03-21 09:07:00,51.3,45.3,30.13,North,8,4.0,6.0,80,0.00,,,0.00,371.00,VWS V14.01,2013-03-21 16:07:00,
2013-03-21 09:12:00,51.3,45.0,30.13,WNW,297,4.0,7.0,79,0.00,,,0.00,385.00,VWS V14.01,2013-03-21 16:12:00,
2013-03-21 09:18:00,51.2,44.2,30.13,NNE,20,1.0,7.0,77,0.00,,,0.00,404.00,VWS V14.01,2013-03-21 16:18:00,
2013-03-21 09:23:00,51.2,44.6,30.13,NNW,328,3.0,5.0,78,0.00,,,0.00,420.00,VWS V14.01,2013-03-21 16:23:00,
2013-03-21 09:28:00,51.3,44.3,30.13,NNW,348,1.0,6.0,77,0.00,,,0.00,438.00,VWS V14.01,2013-03-21 16:28:00,
2013-03-21 09:33:00,51.4,44.4,30.13,North,350,1.0,4.0,77,0.00,,,0.00,454.00,VWS V14.01,2013-03-21 16:33:00,
2013-03-21 09:38:00,51.4,44.1,30.13,North,8,2.0,5.0,76,0.00,,,0.00,473.00,VWS V14.01,2013-03-21 16:38:00,
2013-03-21 09:43:00,51.5,44.2,30.13,NW,304,3.0,4.0,76,0.00,,,0.00,489.00,VWS V14.01,2013-03-21 16:43:00,
2013-03-21 09:48:00,51.8,44.5,30.13,NNW,334,2.0,4.0,76,0.00,,,0.00,504.00,VWS V14.01,2013-03-21 16:48:00,
2013-03-21 09:53:00,52.0,44.7,30.13,NNW,341,2.0,4.0,76,0.00,,,0.00,520.00,VWS V14.01,2013-03-21 16:53:00,
2013-03-21 09:58:00,52.2,44.9,30.13,North,359,2.0,5.0,76,0.00,,,0.00,538.00,VWS V14.01,2013-03-21 16:58:00,
2013-03-21 10:03:00,52.2,44.9,30.13,NNW,344,4.0,6.0,76,0.00,,,0.00,554.00,VWS V14.01,2013-03-21 17:03:00,
2013-03-21 10:08:00,52.2,45.2,30.13,NNW,331,2.0,6.0,77,0.00,,,0.00,568.00,VWS V14.01,2013-03-21 17:08:00,
2013-03-21 10:13:00,52.4,45.4,30.13,NW,314,0.0,4.0,77,0.00,,,0.00,582.00,VWS V14.01,2013-03-21 17:13:00,
2013-03-21 10:18:00,52.6,45.6,30.13,NNW,340,3.0,4.0,77,0.00,,,0.00,596.00,VWS V14.01,2013-03-21 17:18:00,
2013-03-21 10:24:00,52.9,45.9,30.13,NNW,333,1.0,3.0,77,0.00,,,0.00,612.00,VWS V14.01,2013-03-21 17:24:00,
2013-03-21 10:29:00,53.2,46.2,30.13,NNW,338,3.0,4.0,77,0.00,,,0.00,626.00,VWS V14.01,2013-03-21 17:29:00,
2013-03-21 10:34:00,53.2,45.8,30.13,NNW,339,3.0,4.0,76,0.00,,,0.00,638.00,VWS V14.01,2013-03-21 17:34:00,
2013-03-21 10:39:00,53.3,46.3,30.13,NW,318,2.0,5.0,77,0.00,,,0.00,654.00,VWS V14.01,2013-03-21 17:39:00,
2013-03-21 10:44:00,53.6,46.6,30.13,NNE,20,3.0,4.0,77,0.00,,,0.00,666.00,VWS V14.01,2013-03-21 17:44:00,
2013-03-21 10:50:00,54.0,46.6,30.13,NNW,347,2.0,4.0,76,0.00,,,0.00,680.00,VWS V14.01,2013-03-21 17:50:00,
2013-03-21 10:55:00,53.9,46.2,30.13,West,281,2.0,5.0,75,0.00,,,0.00,694.00,VWS V14.01,2013-03-21 17:55:00,
2013-03-21 11:00:00,54.0,46.6,30.12,North,2,3.0,5.0,76,0.00,,,0.00,705.00,VWS V14.01,2013-03-21 18:00:00,
2013-03-21 11:05:00,54.3,46.9,30.12,North,1,1.0,4.0,76,0.00,,,0.00,715.00,VWS V14.01,2013-03-21 18:05:00,
2013-03-21 11:10:00,54.5,46.4,30.12,NNW,339,3.0,4.0,74,0.00,,,0.00,726.00,VWS V14.01,2013-03-21 18:10:00,
2013-03-21 11:15:00,54.4,46.7,30.12,North,355,1.0,6.0,75,0.00,,,0.00,740.00,VWS V14.01,2013-03-21 18:15:00,
2013-03-21 11:20:00,54.6,47.2,30.12,North,6,3.0,4.0,76,0.00,,,0.00,747.00,VWS V14.01,2013-03-21 18:20:00,
2013-03-21 11:26:00,54.6,47.2,30.13,NNE,31,2.0,6.0,76,0.00,,,0.00,756.00,VWS V14.01,2013-03-21 18:26:00,
2013-03-21 11:31:00,54.3,47.2,30.12,NNW,333,3.0,5.0,77,0.00,,,0.00,766.00,VWS V14.01,2013-03-21 18:31:00,
2013-03-21 11:37:00,54.4,47.3,30.12,North,354,3.0,7.0,77,0.00,,,0.00,775.00,VWS V14.01,2013-03-21 18:37:00,
2013-03-21 11:42:00,54.4,47.0,30.12,NNW,342,3.0,7.0,76,0.00,,,0.00,784.00,VWS V14.01,2013-03-21 18:42:00,
2013-03-21 11:47:00,54.4,47.0,30.12,North,2,1.0,7.0,76,0.00,,,0.00,793.00,VWS V14.01,2013-03-21 18:47:00,
2013-03-21 11:52:00,54.7,47.6,30.12,NNW,328,1.0,6.0,77,0.00,,,0.00,802.00,VWS V14.01,2013-03-21 18:52:00,
2013-03-21 11:57:00,54.8,47.0,30.12,NW,325,4.0,6.0,75,0.00,,,0.00,809.00,VWS V14.01,2013-03-21 18:57:00,
2013-03-21 12:02:00,54.8,47.4,30.12,NW,322,2.0,5.0,76,0.00,,,0.00,816.00,VWS V14.01,2013-03-21 19:02:00,
2013-03-21 12:07:00,55.0,47.6,30.12,WNW,289,1.0,5.0,76,0.00,,,0.00,823.00,VWS V14.01,2013-03-21 19:07:00,
2013-03-21 12:13:00,55.3,47.5,30.12,North,7,3.0,6.0,75,0.00,,,0.00,826.00,VWS V14.01,2013-03-21 19:13:00,
2013-03-21 12:18:00,55.2,47.1,30.12,WNW,295,5.0,8.0,74,0.00,,,0.00,830.00,VWS V14.01,2013-03-21 19:18:00,
2013-03-21 12:23:00,55.4,48.0,30.12,North,354,3.0,3.0,76,0.00,,,0.00,837.00,VWS V14.01,2013-03-21 19:23:00,
2013-03-21 12:28:00,55.9,47.7,30.12,WNW,301,1.0,5.0,74,0.00,,,0.00,842.00,VWS V14.01,2013-03-21 19:28:00,
2013-03-21 12:33:00,55.9,47.7,30.12,NNW,328,3.0,5.0,74,0.00,,,0.00,846.00,VWS V14.01,2013-03-21 19:33:00,
2013-03-21 12:38:00,55.7,47.5,30.12,NW,307,5.0,8.0,74,0.00,,,0.00,849.00,VWS V14.01,2013-03-21 19:38:00,
2013-03-21 12:43:00,55.5,48.1,30.12,NW,308,4.0,7.0,76,0.00,,,0.00,847.00,VWS V14.01,2013-03-21 19:43:00,
2013-03-21 12:49:00,55.8,48.4,30.12,NW,306,2.0,7.0,76,0.00,,,0.00,851.00,VWS V14.01,2013-03-21 19:49:00,
2013-03-21 12:54:00,55.9,48.5,30.12,NNW,339,2.0,6.0,76,0.00,,,0.00,858.00,VWS V14.01,2013-03-21 19:54:00,
2013-03-21 12:59:00,56.2,48.8,30.12,NW,310,2.0,10.0,76,0.00,,,0.00,853.00,VWS V14.01,2013-03-21 19:59:00,
2013-03-21 13:04:00,55.9,48.1,30.11,West,278,13.0,13.0,75,0.00,,,0.00,856.00,VWS V14.01,2013-03-21 20:04:00,
2013-03-21 13:09:00,55.3,48.2,30.11,WNW,290,1.0,13.0,77,0.00,,,0.00,856.00,VWS V14.01,2013-03-21 20:09:00,
2013-03-21 13:14:00,55.3,47.9,30.11,WNW,295,7.0,14.0,76,0.00,,,0.00,858.00,VWS V14.01,2013-03-21 20:14:00,
2013-03-21 13:19:00,55.1,48.0,30.11,North,2,5.0,14.0,77,0.00,,,0.00,856.00,VWS V14.01,2013-03-21 20:19:00,
2013-03-21 13:24:00,55.0,48.3,30.11,West,270,5.0,10.0,78,0.00,,,0.00,853.00,VWS V14.01,2013-03-21 20:24:00,
2013-03-21 13:29:00,55.1,48.7,30.11,NNW,329,5.0,10.0,79,0.00,,,0.00,856.00,VWS V14.01,2013-03-21 20:29:00,
2013-03-21 13:34:00,55.1,48.4,30.11,NNW,336,7.0,12.0,78,0.00,,,0.00,851.00,VWS V14.01,2013-03-21 20:34:00,
2013-03-21 13:40:00,55.4,48.7,30.11,West,272,6.0,12.0,78,0.00,,,0.00,847.00,VWS V14.01,2013-03-21 20:40:00,
2013-03-21 13:45:00,55.4,48.3,30.10,NNE,15,4.0,9.0,77,0.00,,,0.00,846.00,VWS V14.01,2013-03-21 20:45:00,
2013-03-21 13:50:00,55.1,48.4,30.10,WNW,297,7.0,16.0,78,0.00,,,0.00,840.00,VWS V14.01,2013-03-21 20:50:00,
2013-03-21 13:55:00,55.1,48.4,30.10,WNW,299,6.0,16.0,78,0.00,,,0.00,837.00,VWS V14.01,2013-03-21 20:55:00,
2013-03-21 14:00:00,55.2,48.1,30.10,West,270,7.0,9.0,77,0.00,,,0.00,833.00,VWS V14.01,2013-03-21 21:00:00,
2013-03-21 14:06:00,55.3,48.2,30.10,WNW,298,4.0,13.0,77,0.00,,,0.00,824.00,VWS V14.01,2013-03-21 21:06:00,
2013-03-21 14:11:00,55.3,47.5,30.10,WNW,301,12.0,14.0,75,0.00,,,0.00,821.00,VWS V14.01,2013-03-21 21:11:00,
2013-03-21 14:16:00,54.9,47.5,30.09,WNW,294,6.0,14.0,76,0.00,,,0.00,817.00,VWS V14.01,2013-03-21 21:16:00,
2013-03-21 14:21:00,55.2,47.4,30.09,WNW,300,4.0,11.0,75,0.00,,,0.00,812.00,VWS V14.01,2013-03-21 21:21:00,
2013-03-21 14:26:00,55.3,47.9,30.09,SW,226,7.0,12.0,76,0.00,,,0.00,803.00,VWS V14.01,2013-03-21 21:26:00,
2013-03-21 14:31:00,55.5,47.4,30.09,NNW,347,6.0,11.0,74,0.00,,,0.00,795.00,VWS V14.01,2013-03-21 21:31:00,
2013-03-21 14:36:00,54.8,47.0,30.09,NW,304,6.0,16.0,75,0.00,,,0.00,784.00,VWS V14.01,2013-03-21 21:36:00,
2013-03-21 14:41:00,54.9,47.1,30.09,West,277,7.0,11.0,75,0.00,,,0.00,779.00,VWS V14.01,2013-03-21 21:41:00,
2013-03-21 14:48:00,55.0,47.2,30.09,West,275,6.0,11.0,75,0.00,,,0.00,766.00,VWS V14.01,2013-03-21 21:48:00,
2013-03-21 14:53:00,55.1,47.0,30.09,WNW,288,6.0,11.0,74,0.00,,,0.00,761.00,VWS V14.01,2013-03-21 21:53:00,
2013-03-21 14:58:00,55.3,47.5,30.08,West,281,13.0,13.0,75,0.00,,,0.00,751.00,VWS V14.01,2013-03-21 21:58:00,
2013-03-21 15:04:00,54.9,46.8,30.08,NNW,337,5.0,14.0,74,0.00,,,0.00,742.00,VWS V14.01,2013-03-21 22:04:00,
2013-03-21 15:09:00,54.9,47.1,30.08,WSW,258,13.0,15.0,75,0.00,,,0.00,731.00,VWS V14.01,2013-03-21 22:09:00,
2013-03-21 15:14:00,55.0,46.9,30.08,NW,318,3.0,12.0,74,0.00,,,0.00,722.00,VWS V14.01,2013-03-21 22:14:00,
2013-03-21 15:19:00,55.0,46.9,30.08,West,275,7.0,12.0,74,0.00,,,0.00,710.00,VWS V14.01,2013-03-21 22:19:00,
2013-03-21 15:24:00,55.1,46.2,30.07,WNW,303,5.0,14.0,72,0.00,,,0.00,700.00,VWS V14.01,2013-03-21 22:24:00,
2013-03-21 15:29:00,55.1,46.6,30.07,WNW,296,9.0,14.0,73,0.00,,,0.00,691.00,VWS V14.01,2013-03-21 22:29:00,
2013-03-21 15:35:00,55.1,46.6,30.07,NNW,329,4.0,15.0,73,0.00,,,0.00,675.00,VWS V14.01,2013-03-21 22:35:00,
2013-03-21 15:40:00,55.3,46.4,30.07,NW,305,11.0,15.0,72,0.00,,,0.00,664.00,VWS V14.01,2013-03-21 22:40:00,
2013-03-21 15:45:00,55.2,46.3,30.07,West,270,6.0,11.0,72,0.00,,,0.00,652.00,VWS V14.01,2013-03-21 22:45:00,
2013-03-21 15:50:00,54.8,46.3,30.07,NW,310,6.0,7.0,73,0.00,,,0.00,638.00,VWS V14.01,2013-03-21 22:50:00,
2013-03-21 15:55:00,54.6,46.5,30.07,WNW,301,5.0,16.0,74,0.00,,,0.00,626.00,VWS V14.01,2013-03-21 22:55:00,
2013-03-21 16:00:00,54.4,47.0,30.07,NW,304,2.0,7.0,76,0.00,,,0.00,610.00,VWS V14.01,2013-03-21 23:00:00,
2013-03-21 16:05:00,54.6,46.8,30.07,West,279,6.0,13.0,75,0.00,,,0.00,596.00,VWS V14.01,2013-03-21 23:05:00,
2013-03-21 16:10:00,54.7,46.2,30.07,NW,306,4.0,9.0,73,0.00,,,0.00,582.00,VWS V14.01,2013-03-21 23:10:00,
2013-03-21 16:15:00,54.7,46.2,30.06,NNW,332,3.0,12.0,73,0.00,,,0.00,570.00,VWS V14.01,2013-03-21 23:15:00,
2013-03-21 16:21:00,55.1,46.6,30.06,WSW,251,7.0,7.0,73,0.00,,,0.00,548.00,VWS V14.01,2013-03-21 23:21:00,
2013-03-21 16:27:00,55.0,46.2,30.06,WNW,290,2.0,12.0,72,0.00,,,0.00,533.00,VWS V14.01,2013-03-21 23:27:00,
2013-03-21 16:32:00,54.8,46.3,30.06,NW,314,6.0,10.0,73,0.00,,,0.00,520.00,VWS V14.01,2013-03-21 23:32:00,
2013-03-21 16:37:00,54.7,46.9,30.06,WNW,284,2.0,11.0,75,0.00,,,0.00,503.00,VWS V14.01,2013-03-21 23:37:00,
2013-03-21 16:42:00,55.0,46.9,30.06,WNW,297,6.0,9.0,74,0.00,,,0.00,487.00,VWS V14.01,2013-03-21 23:42:00,
2013-03-21 16:47:00,54.4,46.3,30.06,West,279,6.0,11.0,74,0.00,,,0.00,471.00,VWS V14.01,2013-03-21 23:47:00,
2013-03-21 16:52:00,54.3,46.6,30.05,WNW,285,4.0,13.0,75,0.00,,,0.00,455.00,VWS V14.01,2013-03-21 23:52:00,
2013-03-21 16:58:00,54.6,46.8,30.06,West,266,8.0,13.0,75,0.00,,,0.00,439.00,VWS V14.01,2013-03-21 23:58:00,
2013-03-21 17:03:00,54.5,46.0,30.06,West,278,10.0,10.0,73,0.00,,,0.00,420.00,VWS V14.01,2013-03-22 00:03:00,
2013-03-21 17:08:00,54.4,46.3,30.05,WNW,288,9.0,10.0,74,0.00,,,0.00,404.00,VWS V14.01,2013-03-22 00:08:00,
2013-03-21 17:13:00,54.4,46.7,30.05,NW,307,6.0,12.0,75,0.00,,,0.00,387.00,VWS V14.01,2013-03-22 00:13:00,
2013-03-21 17:18:00,54.1,46.7,30.05,West,259,6.0,14.0,76,0.00,,,0.00,364.00,VWS V14.01,2013-03-22 00:18:00,
2013-03-21 17:23:00,54.0,46.6,30.05,West,267,10.0,14.0,76,0.00,,,0.00,350.00,VWS V14.01,2013-03-22 00:23:00,
2013-03-21 17:28:00,54.0,46.6,30.05,West,268,6.0,14.0,76,0.00,,,0.00,330.00,VWS V14.01,2013-03-22 00:28:00,
2013-03-21 17:33:00,54.0,47.0,30.05,NW,307,4.0,8.0,77,0.00,,,0.00,315.00,VWS V14.01,2013-03-22 00:33:00,
2013-03-21 17:38:00,53.9,46.9,30.05,SW,232,1.0,10.0,77,0.00,,,0.00,297.00,VWS V14.01,2013-03-22 00:38:00,
2013-03-21 17:44:00,53.7,46.3,30.05,WNW,285,3.0,11.0,76,0.00,,,0.00,276.00,VWS V14.01,2013-03-22 00:44:00,
2013-03-21 17:49:00,53.8,47.1,30.05,NW,321,9.0,12.0,78,0.00,,,0.00,260.00,VWS V14.01,2013-03-22 00:49:00,
2013-03-21 17:54:00,53.8,46.8,30.05,NW,319,3.0,9.0,77,0.00,,,0.00,239.00,VWS V14.01,2013-03-22 00:54:00,
2013-03-21 17:59:00,53.5,46.1,30.04,WNW,289,4.0,13.0,76,0.00,,,0.00,221.00,VWS V14.01,2013-03-22 00:59:00,
2013-03-21 18:04:00,53.3,46.3,30.05,WNW,295,0.0,13.0,77,0.00,,,0.00,204.00,VWS V14.01,2013-03-22 01:04:00,
2013-03-21 18:09:00,53.2,46.5,30.04,West,265,8.0,13.0,78,0.00,,,0.00,186.00,VWS V14.01,2013-03-22 01:09:00,
2013-03-21 18:14:00,53.1,46.4,30.04,West,268,4.0,10.0,78,0.00,,,0.00,167.00,VWS V14.01,2013-03-22 01:14:00,
2013-03-21 18:19:00,53.1,46.8,30.04,NNW,339,5.0,10.0,79,0.00,,,0.00,146.00,VWS V14.01,2013-03-22 01:19:00,
2013-03-21 18:24:00,52.9,46.6,30.04,ENE,58,2.0,10.0,79,0.00,,,0.00,127.00,VWS V14.01,2013-03-22 01:24:00,
2013-03-21 18:29:00,52.8,46.5,30.04,NNW,340,3.0,10.0,79,0.00,,,0.00,109.00,VWS V14.01,2013-03-22 01:29:00,
2013-03-21 18:35:00,52.6,46.3,30.04,WNW,286,4.0,11.0,79,0.00,,,0.00,90.00,VWS V14.01,2013-03-22 01:35:00,
2013-03-21 18:40:00,52.4,46.4,30.04,WNW,302,1.0,7.0,80,0.00,,,0.00,63.00,VWS V14.01,2013-03-22 01:40:00,
2013-03-21 18:45:00,52.1,46.1,30.04,West,259,5.0,15.0,80,0.00,,,0.00,33.00,VWS V14.01,2013-03-22 01:45:00,
2013-03-21 18:50:00,51.8,46.2,30.04,West,264,3.0,3.0,81,0.00,,,0.00,30.00,VWS V14.01,2013-03-22 01:50:00,
2013-03-21 18:56:00,51.7,46.4,30.04,WNW,297,5.0,10.0,82,0.00,,,0.00,25.00,VWS V14.01,2013-03-22 01:56:00,
2013-03-21 19:02:00,51.5,46.2,30.04,WSW,256,4.0,6.0,82,0.00,,,0.00,19.00,VWS V14.01,2013-03-22 02:02:00,
2013-03-21 19:07:00,51.5,46.2,30.04,NW,305,5.0,10.0,82,0.00,,,0.00,16.00,VWS V14.01,2013-03-22 02:07:00,
2013-03-21 19:12:00,51.3,46.0,30.04,SW,216,4.0,6.0,82,0.00,,,0.00,11.00,VWS V14.01,2013-03-22 02:12:00,
2013-03-21 19:17:00,51.2,45.9,30.04,West,268,6.0,6.0,82,0.00,,,0.00,7.00,VWS V14.01,2013-03-22 02:17:00,
2013-03-21 19:22:00,51.1,45.8,30.04,WNW,287,2.0,7.0,82,0.00,,,0.00,0.00,VWS V14.01,2013-03-22 02:22:00,
2013-03-21 19:28:00,51.0,46.0,30.04,WNW,298,1.0,11.0,83,0.00,,,0.00,0.00,VWS V14.01,2013-03-22 02:28:00,
2013-03-21 19:33:00,50.9,45.9,30.05,West,279,3.0,7.0,83,0.00,,,0.00,0.00,VWS V14.01,2013-03-22 02:33:00,
2013-03-21 19:38:00,50.9,45.9,30.05,NW,313,1.0,10.0,83,0.00,,,0.00,0.00,VWS V14.01,2013-03-22 02:38:00,
2013-03-21 19:43:00,50.8,45.8,30.04,NW,309,5.0,8.0,83,0.00,,,0.00,0.00,VWS V14.01,2013-03-22 02:43:00,
2013-03-21 19:48:00,50.9,46.2,30.05,NW,322,6.0,8.0,84,0.00,,,0.00,0.00,VWS V14.01,2013-03-22 02:48:00,
2013-03-21 19:53:00,50.8,45.8,30.04,West,277,4.0,9.0,83,0.00,,,0.00,0.00,VWS V14.01,2013-03-22 02:53:00,
2013-03-21 19:58:00,50.8,45.8,30.04,WNW,288,4.0,15.0,83,0.00,,,0.00,0.00,VWS V14.01,2013-03-22 02:58:00,
2013-03-21 20:03:00,50.8,45.8,30.04,WNW,302,8.0,13.0,83,0.00,,,0.00,0.00,VWS V14.01,2013-03-22 03:03:00,
2013-03-21 20:08:00,50.8,45.8,30.05,NNW,339,4.0,13.0,83,0.00,,,0.00,0.00,VWS V14.01,2013-03-22 03:08:00,
2013-03-21 20:13:00,50.8,46.2,30.05,NNW,341,3.0,12.0,84,0.00,,,0.00,0.00,VWS V14.01,2013-03-22 03:13:00,
2013-03-21 20:18:00,50.7,46.0,30.05,NW,310,1.0,12.0,84,0.00,,,0.00,0.00,VWS V14.01,2013-03-22 03:18:00,
2013-03-21 20:23:00,50.6,46.0,30.06,North,356,1.0,6.0,84,0.00,,,0.00,0.00,VWS V14.01,2013-03-22 03:23:00,
2013-03-21 20:28:00,50.6,46.0,30.06,ESE,117,2.0,7.0,84,0.00,,,0.00,0.00,VWS V14.01,2013-03-22 03:28:00,
2013-03-21 20:33:00,50.6,46.0,30.05,East,95,0.0,8.0,84,0.00,,,0.00,0.00,VWS V14.01,2013-03-22 03:33:00,
2013-03-21 20:38:00,50.5,46.2,30.06,ESE,110,3.0,8.0,85,0.00,,,0.00,0.00,VWS V14.01,2013-03-22 03:38:00,
2013-03-21 20:43:00,50.5,46.2,30.06,North,10,0.0,9.0,85,0.00,,,0.00,0.00,VWS V14.01,2013-03-22 03:43:00,
2013-03-21 20:48:00,50.4,46.1,30.06,ESE,121,0.0,9.0,85,0.00,,,0.00,0.00,VWS V14.01,2013-03-22 03:48:00,
2013-03-21 20:53:00,50.3,46.0,30.06,SE,141,3.0,8.0,85,0.00,,,0.00,0.00,VWS V14.01,2013-03-22 03:53:00,
2013-03-21 20:58:00,50.3,46.0,30.06,SE,129,5.0,8.0,85,0.00,,,0.00,0.00,VWS V14.01,2013-03-22 03:58:00,
2013-03-21 21:00:00,50.3,46.0,30.06,SE,137,3.0,8.0,85,0.00,,,0.00,0.00,VWS V14.01,2013-03-22 04:00:00,
2013-03-21 21:04:00,50.3,46.0,30.06,NW,313,2.0,7.0,85,0.00,,,0.00,0.00,VWS V14.01,2013-03-22 04:04:00,
2013-03-21 21:09:00,50.3,46.0,30.07,South,183,3.0,11.0,85,0.00,,,0.00,0.00,VWS V14.01,2013-03-22 04:09:00,
2013-03-21 21:11:00,50.3,46.0,30.07,ESE,105,1.0,1.0,85,0.00,,,0.00,0.00,VWS V14.01,2013-03-22 04:11:00,
2013-03-21 21:16:00,50.3,46.0,30.07,ESE,119,0.0,9.0,85,0.00,,,0.00,0.00,VWS V14.01,2013-03-22 04:16:00,
2013-03-21 21:21:00,50.2,45.9,30.07,WNW,293,5.0,7.0,85,0.00,,,0.00,0.00,VWS V14.01,2013-03-22 04:21:00,
2013-03-21 21:27:00,50.2,45.9,30.07,West,279,1.0,9.0,85,0.00,,,0.00,0.00,VWS V14.01,2013-03-22 04:27:00,
2013-03-21 21:32:00,50.2,46.2,30.07,NNE,15,3.0,5.0,86,0.00,,,0.00,0.00,VWS V14.01,2013-03-22 04:32:00,
2013-03-21 21:37:00,50.1,46.1,30.07,NW,313,1.0,7.0,86,0.00,,,0.00,0.00,VWS V14.01,2013-03-22 04:37:00,
2013-03-21 21:43:00,50.1,46.1,30.07,SW,225,0.0,7.0,86,0.00,,,0.00,0.00,VWS V14.01,2013-03-22 04:43:00,
2013-03-21 21:48:00,50.1,46.1,30.07,West,270,0.0,8.0,86,0.00,,,0.00,0.00,VWS V14.01,2013-03-22 04:48:00,
2013-03-21 21:53:00,50.1,46.1,30.08,WSW,243,0.0,6.0,86,0.00,,,0.00,0.00,VWS V14.01,2013-03-22 04:53:00,
2013-03-21 21:58:00,50.1,46.1,30.08,WNW,287,0.0,8.0,86,0.00,,,0.00,0.00,VWS V14.01,2013-03-22 04:58:00,
2013-03-21 22:03:00,50.1,46.1,30.08,NW,326,2.0,3.0,86,0.00,,,0.00,0.00,VWS V14.01,2013-03-22 05:03:00,
2013-03-21 22:08:00,50.1,46.4,30.08,West,281,3.0,9.0,87,0.00,,,0.00,0.00,VWS V14.01,2013-03-22 05:08:00,
2013-03-21 22:13:00,50.1,46.1,30.08,SSW,203,2.0,2.0,86,0.00,,,0.00,0.00,VWS V14.01,2013-03-22 05:13:00,
2013-03-21 22:18:00,50.0,46.3,30.08,SSW,203,0.0,2.0,87,0.00,,,0.00,0.00,VWS V14.01,2013-03-22 05:18:00,
2013-03-21 22:23:00,49.9,46.2,30.08,SSW,203,0.0,2.0,87,0.00,,,0.00,0.00,VWS V14.01,2013-03-22 05:23:00,
2013-03-21 22:28:00,49.8,46.1,30.08,NW,308,0.0,6.0,87,0.00,,,0.00,0.00,VWS V14.01,2013-03-22 05:28:00,
2013-03-21 22:33:00,49.9,46.2,30.07,WNW,300,4.0,7.0,87,0.00,,,0.00,0.00,VWS V14.01,2013-03-22 05:33:00,
2013-03-21 22:38:00,49.9,46.2,30.08,NNW,332,3.0,7.0,87,0.00,,,0.00,0.00,VWS V14.01,2013-03-22 05:38:00,
2013-03-21 22:43:00,50.0,46.6,30.08,WNW,288,2.0,4.0,88,0.00,,,0.00,0.00,VWS V14.01,2013-03-22 05:43:00,
2013-03-21 22:48:00,49.9,46.2,30.08,NW,304,5.0,6.0,87,0.00,,,0.00,0.00,VWS V14.01,2013-03-22 05:48:00,
2013-03-21 22:53:00,49.9,46.5,30.08,NW,312,1.0,5.0,88,0.00,,,0.00,0.00,VWS V14.01,2013-03-22 05:53:00,
2013-03-21 22:58:00,49.9,46.5,30.08,NW,325,3.0,11.0,88,0.00,,,0.00,0.00,VWS V14.01,2013-03-22 05:58:00,
2013-03-21 23:03:00,49.9,46.5,30.08,WSW,246,4.0,7.0,88,0.00,,,0.00,0.00,VWS V14.01,2013-03-22 06:03:00,
2013-03-21 23:08:00,49.9,46.5,30.08,WNW,301,2.0,8.0,88,0.00,,,0.00,0.00,VWS V14.01,2013-03-22 06:08:00,
2013-03-21 23:13:00,49.9,46.5,30.08,NW,309,3.0,6.0,88,0.00,,,0.00,0.00,VWS V14.01,2013-03-22 06:13:00,
2013-03-21 23:18:00,49.9,46.5,30.08,NW,319,1.0,7.0,88,0.00,,,0.00,0.00,VWS V14.01,2013-03-22 06:18:00,
2013-03-21 23:23:00,49.8,46.4,30.08,WNW,287,1.0,5.0,88,0.00,,,0.00,0.00,VWS V14.01,2013-03-22 06:23:00,
2013-03-21 23:28:00,49.7,46.3,30.08,WNW,284,5.0,6.0,88,0.00,,,0.00,0.00,VWS V14.01,2013-03-22 06:28:00,
2013-03-21 23:34:00,49.7,46.6,30.08,WNW,295,2.0,5.0,89,0.00,,,0.00,0.00,VWS V14.01,2013-03-22 06:34:00,
2013-03-21 23:39:00,49.7,46.6,30.08,NW,316,3.0,5.0,89,0.00,,,0.00,0.00,VWS V14.01,2013-03-22 06:39:00,
2013-03-21 23:44:00,49.6,47.4,30.07,WNW,290,3.0,3.0,92,0.00,,,0.00,0.00,VWS V14.01,2013-03-22 06:44:00,
2013-03-21 23:49:00,49.6,46.5,30.07,WNW,289,4.0,4.0,89,0.00,,,0.00,0.00,VWS V14.01,2013-03-22 06:49:00,
2013-03-21 23:54:00,49.6,46.5,30.07,WNW,293,3.0,4.0,89,0.00,,,0.00,0.00,VWS V14.01,2013-03-22 06:54:00,
2013-03-21 23:59:00,49.6,46.5,30.07,WNW,291,1.0,5.0,89,0.00,,,0.00,0.00,VWS V14.01,2013-03-22 06:59:00,